AB8YS Weather Reports


time (UTC)temp
C
wind
direction
speed
KPH
gust
KPH
rain 1hr
cm
rain 24hr
cm
rain mn
cm
humidity
%
barometer
mb
20260507093043 3 62 0.0 0.0 0.00 0.00 0.00 96 1014.8
20260507091542 3 63 0.0 0.0 0.00 0.00 0.00 96 1014.6
20260507090043 3 63 0.0 0.0 0.00 0.00 0.00 96 1014.6
20260507084541 3 62 0.0 0.0 0.00 0.00 0.00 96 1014.5
20260507083047 4 63 0.0 0.0 0.00 0.00 0.00 96 1014.5
20260507081537 4 62 0.0 0.0 0.00 0.00 0.00 95 1014.4
20260507080037 4 63 0.0 0.0 0.00 0.00 0.00 95 1014.3
20260507074540 5 63 0.0 0.0 0.00 0.00 0.00 95 1014.4
20260507073033 5 62 0.0 0.0 0.00 0.00 0.00 95 1014.4
20260507071548 5 62 0.0 0.0 0.00 0.00 0.00 95 1014.4
20260507070034 5 62 0.0 0.0 0.00 0.00 0.00 95 1014.3
20260507064528 5 63 0.0 0.0 0.00 0.00 0.00 95 1014.5
20260507063029 5 63 0.0 0.0 0.00 0.00 0.00 94 1014.5
20260507061525 5 63 0.0 0.0 0.00 0.00 0.00 94 1014.6
20260507060029 6 63 0.0 0.0 0.00 0.00 0.00 94 1014.6
20260507054521 6 63 0.0 0.0 0.00 0.00 0.00 94 1014.6
20260507053020 6 63 0.0 0.0 0.00 0.00 0.00 94 1014.6
20260507051518 6 62 0.0 0.0 0.00 0.00 0.00 94 1014.8
20260507050016 7 63 0.0 0.0 0.00 0.00 0.00 94 1014.9
20260507044514 6 63 0.0 0.0 0.00 0.00 0.00 93 1014.8
20260507043013 6 63 0.0 0.0 0.00 0.00 0.00 92 1014.7
20260507041511 7 63 0.0 0.0 0.00 0.00 0.00 92 1014.7
20260507040010 7 62 0.0 0.0 0.00 0.00 0.00 91 1014.5
20260507034506 7 62 0.0 0.0 0.00 0.00 0.00 91 1014.5
20260507033006 7 63 0.0 0.0 0.00 0.00 0.00 89 1014.6
20260507031506 7 62 0.0 0.0 0.00 0.00 0.00 88 1014.7
20260507030006 7 63 0.0 0.0 0.00 0.00 0.00 86 1014.8
20260507024504 7 63 0.0 0.0 0.00 0.00 0.00 84 1014.8
20260507023003 8 63 0.0 0.0 0.00 0.00 0.00 83 1014.8
20260507021504 8 63 0.0 0.0 0.00 0.00 0.00 82 1014.6
20260507020104 8 62 0.0 0.0 0.00 0.00 0.00 80 1014.5
20260507014607 9 62 0.0 0.0 0.00 0.00 0.00 80 1014.2
20260507013056 10 63 0.0 0.0 0.00 0.00 0.00 78 1014.1
20260507011603 10 63 0.0 0.0 0.00 0.00 0.00 78 1014.1
20260507010056 10 63 0.0 0.0 0.00 0.00 0.00 76 1014.0
20260507004553 10 62 0.0 0.0 0.00 0.00 0.00 72 1014.0
20260507003052 11 63 0.0 0.0 0.00 0.00 0.00 69 1013.6
20260507001606 11 62 0.0 0.0 0.00 0.00 0.00 67 1013.4
20260507000057 11 63 0.0 0.0 0.00 0.00 0.00 67 1013.3
20260506234549 12 63 0.0 1.6 0.00 0.00 0.00 65 1013.4
20260506233049 12 88 0.0 1.6 0.00 0.00 0.00 62 1013.1
20260506231549 12 24 0.0 8.0 0.00 0.00 0.00 60 1013.2
20260506230052 12 288 0.0 0.0 0.00 0.00 0.00 59 1013.2
20260506224548 12 256 0.0 1.6 0.00 0.00 0.00 59 1013.4
20260506223047 12 233 0.0 1.6 0.00 0.00 0.00 59 1013.5
20260506221546 12 234 0.0 0.0 0.00 0.00 0.00 58 1013.6
20260506220057 13 235 0.0 1.6 0.00 0.00 0.00 62 1013.7
20260506214546 13 235 0.0 1.6 0.00 0.00 0.00 59 1013.5
20260506213044 13 226 0.0 1.6 0.00 0.00 0.00 59 1013.3
20260506211542 13 226 0.0 1.6 0.00 0.00 0.00 59 1013.2
20260506210041 13 140 0.0 0.0 0.00 0.00 0.00 59 1013.0
20260506204540 13 140 0.0 1.6 0.00 0.00 0.00 59 1013.0
20260506203113 13 25 0.0 1.6 0.00 0.00 0.00 57 1013.0
20260506201539 13 357 0.0 1.6 0.00 0.00 0.00 56 1013.1
20260506200046 13 282 0.0 1.6 0.00 0.00 0.00 58 1013.0
20260506194538 13 297 0.0 1.6 0.00 0.00 0.00 57 1012.9
20260506193037 13 323 0.0 4.8 0.00 0.00 0.00 56 1012.6
20260506191537 13 303 0.0 3.2 0.00 0.00 0.00 55 1012.7
20260506190045 14 273 0.0 1.6 0.00 0.00 0.00 59 1012.7
20260506184543 14 264 0.0 3.2 0.00 0.00 0.00 58 1012.6
20260506183036 15 295 0.0 11.3 0.00 0.00 0.00 54 1012.6
20260506181534 15 38 1.6 6.4 0.00 0.00 0.00 56 1012.4
20260506180036 15 312 0.0 3.2 0.00 0.00 0.00 58 1012.6
20260506174531 15 276 0.0 3.2 0.00 0.00 0.00 57 1012.7
20260506173037 14 45 0.0 6.4 0.00 0.00 0.00 56 1012.8
20260506171528 14 330 0.0 3.2 0.00 0.00 0.00 57 1012.9
20260506170027 14 291 0.0 3.2 0.00 0.00 0.00 58 1012.9
20260506164524 13 355 0.0 6.4 0.00 0.00 0.00 59 1013.0
20260506163039 13 34 0.0 3.2 0.00 0.00 0.00 64 1012.7
20260506161526 13 79 1.6 8.0 0.00 0.00 0.00 64 1012.8
20260506160021 13 60 0.0 4.8 0.00 0.00 0.00 66 1012.7
20260506154529 13 278 0.0 4.8 0.00 0.00 0.00 66 1013.1
20260506153015 12 264 0.0 1.6 0.00 0.00 0.00 68 1012.9
20260506151514 12 89 0.0 3.2 0.00 0.00 0.00 72 1012.4
20260506150007 11 325 0.0 6.4 0.00 0.00 0.00 73 1012.1
20260506144503 11 279 0.0 3.2 0.00 0.00 0.00 78 1011.9
20260506143100 10 312 0.0 6.4 0.00 0.00 0.00 81 1011.9
20260506141557 9 36 0.0 1.6 0.00 0.00 0.00 90 1011.6
20260506140058 8 51 0.0 3.2 0.00 0.00 0.00 94 1011.9
20260506134554 7 347 0.0 0.0 0.00 0.00 0.00 96 1011.9
20260506133052 7 347 0.0 1.6 0.00 0.00 0.00 97 1011.5
20260506131551 7 84 0.0 0.0 0.00 0.00 0.00 97 1011.2
20260506130049 7 58 0.0 1.6 0.00 0.00 0.00 98 1011.2
20260506124548 7 17 0.0 1.6 0.00 0.00 0.00 98 1010.7
20260506123049 6 17 0.0 0.0 0.00 0.00 0.00 98 1010.8
20260506121554 6 17 0.0 0.0 0.00 0.00 0.00 98 1010.9
20260506120043 6 16 0.0 1.6 0.00 0.00 0.00 98 1010.2
20260506114541 6 16 0.0 1.6 0.00 0.00 0.00 98 1010.0
20260506113040 6 74 0.0 3.2 0.00 0.00 0.00 98 1009.4
20260506111539 6 94 0.0 1.6 0.00 0.00 0.00 98 1009.2
20260506110040 6 74 0.0 1.6 0.00 0.00 0.00 98 1009.6
20260506104535 6 72 0.0 0.0 0.00 0.00 0.00 98 1009.3
20260506103033 6 91 0.0 1.6 0.00 0.00 0.00 98 1008.4
20260506101533 6 23 0.0 1.6 0.00 0.00 0.00 98 1008.5
20260506100034 6 104 0.0 0.0 0.00 0.00 0.00 98 1008.7